Location: Erlenbrunn
(49.1717°N, 7.6142°E)
Time: 13:01:28
(UTC+00:00)

Cosmos 1869 - Pass Details

Date: 25 November 2020
Orbit: 514 x 567 km, 82.5° (Epoch: 26 January)

Event Time Altitude Azimuth Distance (km) Brightness Sun altitude
Rises 16:05:04 0° 188° (S) 2,706 7.4 -4.7°
Reaches altitude 10° 16:07:12 10° 188° (S) 1,826 6.5 -5.0°
Maximum altitude 16:11:14 90° 134° (SE) 565 3.4 -5.6°
Drops below altitude 10° 16:15:22 10° 10° (N) 1,868 5.7 -6.2°
Sets 16:17:34 0° 10° (N) 2,774 6.6 -6.6°
